• In Belgium
  • List of Countries
  • For 7 days
  • Water Temperature
  • Satellite Maps
  • Weather Map
  • Weather Widgets
  • user-avatar
    Login

    Hourly Weather Sydney

    Today, 17 October, Tuesday

    Time Temperature Precipitation Wind Pressure Humidity
    00:00 +15°C° 0 mm 2 mps 770 mmHg 89%
    01:00 +14°C° 0 mm 2 mps 769 mmHg 91%
    02:00 +14°C° 0 mm 2 mps 769 mmHg 90%
    03:00 +15°C° 0 mm 2 mps 769 mmHg 89%
    04:00 +15°C° 0 mm 2 mps 769 mmHg 86%
    05:00 +16°C° 0 mm 2 mps 769 mmHg 81%
    06:00 +17°C° 0 mm 2 mps 769 mmHg 76%
    07:00 +18°C° 0 mm 2 mps 769 mmHg 72%
    08:00 +20°C° 0 mm 2 mps 769 mmHg 66%
    09:00 +21°C° 0 mm 3 mps 769 mmHg 60%
    10:00 +26°C° 0 mm 3 mps 769 mmHg 47%
    11:00 +26°C° 0 mm 4 mps 769 mmHg 45%
    12:00 +27°C° 0 mm 5 mps 768 mmHg 43%
    13:00 +28°C° 0 mm 6 mps 768 mmHg 41%
    14:00 +27°C° 0 mm 6 mps 768 mmHg 43%
    15:00 +26°C° 0 mm 6 mps 768 mmHg 46%
    16:00 +25°C° 0 mm 5 mps 768 mmHg 48%
    17:00 +23°C° 0 mm 5 mps 769 mmHg 56%
    18:00 +21°C° 0 mm 4 mps 769 mmHg 63%
    19:00 +19°C° 0 mm 4 mps 769 mmHg 71%
    20:00 +19°C° 0 mm 4 mps 770 mmHg 76%
    21:00 +18°C° 0 mm 4 mps 770 mmHg 81%
    22:00 +17°C° 0 mm 4 mps 770 mmHg 87%
    23:00 +17°C° 0 mm 4 mps 770 mmHg 89%

    Tomorrow, 18 October, Wednesday

    Time Temperature Precipitation Wind Pressure Humidity
    00:00 +16°C° 0 mm 3 mps 770 mmHg 90%
    01:00 +16°C° 0 mm 3 mps 770 mmHg 92%
    02:00 +16°C° 0 mm 3 mps 770 mmHg 93%
    03:00 +14°C° 0 mm 3 mps 770 mmHg 94%
    04:00 +14°C° 0 mm 3 mps 769 mmHg 95%
    05:00 +16°C° 0 mm 3 mps 770 mmHg 89%
    06:00 +18°C° 0 mm 3 mps 770 mmHg 83%
    07:00 +19°C° 0 mm 3 mps 770 mmHg 77%
    08:00 +20°C° 0 mm 4 mps 770 mmHg 70%
    09:00 +22°C° 0 mm 5 mps 770 mmHg 62%
    10:00 +25°C° 0 mm 5 mps 770 mmHg 54%
    11:00 +24°C° 0 mm 6 mps 770 mmHg 51%
    12:00 +26°C° 0 mm 6 mps 769 mmHg 48%
    13:00 +27°C° 0 mm 6 mps 769 mmHg 45%
    14:00 +27°C° 0 mm 7 mps 768 mmHg 47%
    15:00 +26°C° 0 mm 7 mps 768 mmHg 49%
    16:00 +26°C° 0 mm 7 mps 768 mmHg 51%
    17:00 +23°C° 0 mm 7 mps 768 mmHg 59%
    18:00 +21°C° 0 mm 6 mps 768 mmHg 68%
    19:00 +20°C° 0 mm 6 mps 769 mmHg 76%
    20:00 +19°C° 0 mm 6 mps 769 mmHg 79%
    21:00 +17°C° 0 mm 6 mps 770 mmHg 82%
    22:00 +17°C° 0 mm 5 mps 770 mmHg 86%
    23:00 +16°C° 0 mm 5 mps 769 mmHg 87%

    Day after tomorrow, 19 October, Thursday

    Time Temperature Precipitation Wind Pressure Humidity
    00:00 +16°C° 0 mm 5 mps 769 mmHg 89%
    01:00 +16°C° 0 mm 5 mps 769 mmHg 91%
    02:00 +15°C° 0 mm 5 mps 768 mmHg 91%
    03:00 +15°C° 0 mm 5 mps 768 mmHg 92%
    04:00 +15°C° 0 mm 4 mps 768 mmHg 92%
    05:00 +16°C° 0 mm 5 mps 768 mmHg 87%
    06:00 +17°C° 0 mm 5 mps 769 mmHg 81%
    07:00 +19°C° 0 mm 5 mps 769 mmHg 75%
    08:00 +21°C° 0 mm 5 mps 768 mmHg 65%
    09:00 +24°C° 0 mm 6 mps 768 mmHg 54%
    10:00 +27°C° 0 mm 6 mps 768 mmHg 43%
    11:00 +29°C° 0 mm 6 mps 767 mmHg 39%
    12:00 +30°C° 0 mm 7 mps 766 mmHg 35%
    13:00 +32°C° 0 mm 7 mps 765 mmHg 31%
    14:00 +32°C° 0 mm 8 mps 764 mmHg 34%
    15:00 +31°C° 0 mm 8 mps 764 mmHg 37%
    16:00 +31°C° 0 mm 8 mps 763 mmHg 40%
    17:00 +27°C° 0 mm 8 mps 763 mmHg 49%
    18:00 +24°C° 0 mm 8 mps 764 mmHg 58%
    19:00 +22°C° 0 mm 8 mps 764 mmHg 67%
    20:00 +21°C° 0 mm 6 mps 764 mmHg 71%
    21:00 +21°C° 0 mm 5 mps 764 mmHg 74%
    22:00 +20°C° 0 mm 4 mps 764 mmHg 78%
    23:00 +19°C° 0 mm 4 mps 764 mmHg 80%

    20 October, Friday

    Time Temperature Precipitation Wind Pressure Humidity
    00:00 +19°C° 0 mm 3 mps 764 mmHg 83%
    01:00 +18°C° 0 mm 2 mps 763 mmHg 85%
    02:00 +18°C° 0 mm 2 mps 763 mmHg 85%
    03:00 +18°C° 0 mm 2 mps 763 mmHg 84%
    04:00 +18°C° 0 mm 2 mps 762 mmHg 84%
    05:00 +18°C° 0.6 mm 2 mps 763 mmHg 85%
    06:00 +19°C° 0.6 mm 2 mps 763 mmHg 86%
    07:00 +19°C° 0.6 mm 2 mps 764 mmHg 87%
    08:00 +19°C° 1.8 mm 2 mps 764 mmHg 89%
    09:00 +19°C° 1.8 mm 3 mps 764 mmHg 90%
    10:00 +20°C° 1.8 mm 3 mps 764 mmHg 92%
    11:00 +19°C° 3.1 mm 5 mps 764 mmHg 92%
    12:00 +17°C° 3.1 mm 7 mps 764 mmHg 91%
    13:00 +16°C° 3.1 mm 8 mps 764 mmHg 91%
    14:00 +16°C° 1.1 mm 8 mps 764 mmHg 90%
    15:00 +15°C° 1.1 mm 7 mps 764 mmHg 90%
    16:00 +15°C° 1.1 mm 7 mps 764 mmHg 90%
    17:00 +15°C° 0.2 mm 7 mps 765 mmHg 89%
    18:00 +15°C° 0.2 mm 7 mps 765 mmHg 89%
    19:00 +15°C° 0.2 mm 7 mps 766 mmHg 89%
    20:00 +15°C° 0.2 mm 7 mps 766 mmHg 88%
    21:00 +15°C° 0.2 mm 7 mps 766 mmHg 88%
    22:00 +15°C° 0.2 mm 7 mps 766 mmHg 87%
    23:00 +14°C° 0.5 mm 7 mps 766 mmHg 85%

    21 October, Saturday

    Time Temperature Precipitation Wind Pressure Humidity
    00:00 +14°C° 0.5 mm 7 mps 765 mmHg 84%
    01:00 +13°C° 0.5 mm 6 mps 765 mmHg 82%
    02:00 +13°C° 0.1 mm 6 mps 765 mmHg 83%
    03:00 +11°C° 0.1 mm 6 mps 765 mmHg 83%
    04:00 +11°C° 0.1 mm 6 mps 765 mmHg 84%
    05:00 +11°C° 0 mm 6 mps 765 mmHg 81%
    06:00 +13°C° 0 mm 6 mps 765 mmHg 78%
    07:00 +13°C° 0 mm 6 mps 766 mmHg 75%
    08:00 +14°C° 0.1 mm 6 mps 765 mmHg 70%
    09:00 +16°C° 0.1 mm 6 mps 765 mmHg 65%
    10:00 +17°C° 0.1 mm 6 mps 765 mmHg 61%
    11:00 +17°C° 0.1 mm 6 mps 764 mmHg 59%
    12:00 +19°C° 0.1 mm 6 mps 764 mmHg 58%
    13:00 +19°C° 0.1 mm 5 mps 763 mmHg 56%
    14:00 +19°C° 0 mm 5 mps 763 mmHg 55%
    15:00 +19°C° 0 mm 5 mps 763 mmHg 54%
    16:00 +19°C° 0 mm 5 mps 762 mmHg 53%
    17:00 +17°C° 0 mm 5 mps 763 mmHg 59%
    18:00 +15°C° 0 mm 4 mps 763 mmHg 66%
    19:00 +14°C° 0 mm 4 mps 764 mmHg 73%
    20:00 +13°C° 0 mm 3 mps 764 mmHg 76%
    21:00 +13°C° 0 mm 3 mps 764 mmHg 79%
    22:00 +12°C° 0 mm 3 mps 764 mmHg 82%
    23:00 +12°C° 0 mm 3 mps 763 mmHg 83%

    22 October, Sunday

    Time Temperature Precipitation Wind Pressure Humidity
    00:00 +12°C° 0 mm 3 mps 763 mmHg 85%
    01:00 +12°C° 0 mm 2 mps 762 mmHg 86%
    02:00 +11°C° 0 mm 3 mps 762 mmHg 88%
    03:00 +11°C° 0 mm 3 mps 762 mmHg 90%
    04:00 +10°C° 0 mm 3 mps 761 mmHg 92%
    05:00 +12°C° 0 mm 3 mps 761 mmHg 86%
    06:00 +13°C° 0 mm 3 mps 762 mmHg 80%
    07:00 +15°C° 0 mm 2 mps 762 mmHg 74%
    08:00 +18°C° 0 mm 2 mps 761 mmHg 65%
    09:00 +21°C° 0 mm 2 mps 761 mmHg 55%
    10:00 +24°C° 0 mm 2 mps 761 mmHg 46%
    11:00 +24°C° 0 mm 2 mps 760 mmHg 45%
    12:00 +24°C° 0 mm 2 mps 759 mmHg 45%
    13:00 +24°C° 0 mm 3 mps 759 mmHg 45%
    14:00 +24°C° 0.1 mm 3 mps 759 mmHg 48%
    15:00 +22°C° 0.1 mm 3 mps 758 mmHg 51%
    16:00 +22°C° 0.1 mm 3 mps 758 mmHg 54%
    17:00 +20°C° 0.1 mm 3 mps 758 mmHg 62%
    18:00 +18°C° 0.1 mm 3 mps 759 mmHg 70%
    19:00 +17°C° 0.1 mm 3 mps 759 mmHg 77%
    20:00 +16°C° 0.1 mm 2 mps 759 mmHg 79%
    21:00 +16°C° 0.1 mm 2 mps 760 mmHg 81%
    22:00 +15°C° 0.1 mm 2 mps 760 mmHg 83%
    23:00 +15°C° 0.5 mm 2 mps 760 mmHg 85%
    Show more